Simultaneous Nadir Overpasses (SNOs) Predictions

Prediction of SNOs between LANDSAT-8 and METOP-B Satellite Orbit:

Table of predicted SNOs for the next 14.0 days since TLE Epoch: 11/20/2021
Index Date (LANDSAT-8) Time (LANDSAT-8) Lat,Lon (LANDSAT-8) SZA (LANDSAT-8 ) Date (METOP-B) Time (METOP-B) Lat,Lon (METOP-B) SZA (METOP-B ) Distance(km) Time Diff (sec)
1 11/22/2021 03:55:27 -81.14, -18.74 76.40 11/22/2021 03:55:21 -81.14, -18.79 76.41 0.86 6
2 11/22/2021 04:44:52 81.16, 149.35 103.68 11/22/2021 04:45:59 81.17, 149.53 103.73 3.16 67
3 11/24/2021 22:40:16 81.11,-120.34 104.09 11/24/2021 22:39:03 81.11,-120.42 104.05 1.40 73
4 11/24/2021 23:29:42 -81.13, 47.65 75.86 11/24/2021 23:29:42 -81.14, 47.65 75.85 0.52 0
5 11/25/2021 00:19:04 81.23,-143.18 104.38 11/25/2021 00:20:18 81.19,-143.27 104.38 4.09 74
6 11/27/2021 18:14:31 81.13, -53.65 104.63 11/27/2021 18:13:24 81.13, -53.63 104.60 0.44 67
7 11/27/2021 19:03:57 -81.15, 114.36 75.32 11/27/2021 19:04:03 -81.15, 114.44 75.30 1.37 6
8 11/30/2021 13:48:47 81.12, 12.63 105.05 11/30/2021 13:47:46 81.12, 12.76 105.04 2.35 61
9 11/30/2021 14:38:13 -81.14,-179.33 74.89 11/30/2021 14:38:25 -81.15,-179.17 74.86 2.80 12
10 12/03/2021 09:23:01 81.13, 79.25 105.47 12/03/2021 09:22:07 81.12, 79.13 105.43 2.21 54



Historial Predications of SNOs between LANDSAT-8 and METOP-B
